Volver al catálogo

OV1-21 R/B

ActivoPO
NORAD 5397·ROCKET BODY·🇺🇸 United States

Lanzado Aug 7, 1971 desde Vandenberg Space Force Base

Loading…

Próximos Pases (próximas 24 horas)

TLE

ActualizadoSource: Space-Track

Época: Sep 14, 2026, 09:40 UTC

1 05397U 71067B   26257.40340775  .00000092  00000-0  35704-4 0  9991
2 05397  87.6252  49.3332 0079369 255.1125 104.1264 14.18247804847090

Sigue OV1-21 R/B en tiempo real con AllMySat

Download on the App Store